Location: Joplin, MO
(37.0842°N, 94.5133°W)
Time: 10:34:46
(UTC+02:00)

Vanguard 3 - Pass Details

Date: 06 April 2023
Orbit: 507 x 3246 km, 33.4° (Epoch: 01 June)

Event Time Altitude Azimuth Distance (km) Brightness Sun altitude
Rises 10:27:55 0° 267° (W) 5,742 - -37.3°
Reaches altitude 10° 10:31:09 10° 266° (W) 5,030 - -36.9°
Exits shadow 10:40:56 51° 257° (WSW) 3,411 9.8 -35.5°
Maximum altitude 10:47:22 79° 183° (S) 3,160 9.8 -34.6°
Drops below altitude 10° 11:07:21 10° 101° (E) 6,015 12.0 -31.6°
Sets 11:11:40 0° 100° (E) 6,862 12.4 -31.0°
